• In Uzbekistan
  • List of Countries
  • For 7 days
  • Water Temperature
  • Satellite Maps
  • Weather Map
  • Weather Widgets
  • user-avatar
    Login

    Hourly Weather Zawadka

    Today, 21 July, Saturday

    Time Temperature Precipitation Wind Pressure Humidity
    00:00 +17°C° 0 mm 2 mps 734 mmHg 92%
    01:00 +17°C° 0 mm 2 mps 734 mmHg 93%
    02:00 +16°C° 0 mm 2 mps 734 mmHg 93%
    03:00 +16°C° 0 mm 2 mps 734 mmHg 93%
    04:00 +15°C° 0 mm 2 mps 734 mmHg 94%
    05:00 +17°C° 0 mm 2 mps 734 mmHg 89%
    06:00 +18°C° 0 mm 2 mps 734 mmHg 84%
    07:00 +20°C° 0 mm 2 mps 735 mmHg 79%
    08:00 +21°C° 0 mm 2 mps 735 mmHg 72%
    09:00 +24°C° 0 mm 3 mps 735 mmHg 65%
    10:00 +25°C° 0 mm 3 mps 735 mmHg 58%
    11:00 +25°C° 0 mm 3 mps 734 mmHg 56%
    12:00 +26°C° 0 mm 3 mps 734 mmHg 53%
    13:00 +27°C° 0 mm 3 mps 734 mmHg 51%
    14:00 +27°C° 0 mm 3 mps 734 mmHg 52%
    15:00 +27°C° 0 mm 3 mps 734 mmHg 54%
    16:00 +27°C° 0 mm 2 mps 734 mmHg 55%
    17:00 +25°C° 0 mm 2 mps 733 mmHg 61%
    18:00 +23°C° 0 mm 2 mps 733 mmHg 67%
    19:00 +22°C° 0 mm 1 mps 733 mmHg 73%
    20:00 +21°C° 0 mm 1 mps 733 mmHg 75%
    21:00 +20°C° 0 mm 1 mps 734 mmHg 78%
    22:00 +19°C° 0 mm 1 mps 734 mmHg 80%
    23:00 +18°C° 0 mm 1 mps 734 mmHg 81%

    Tomorrow, 22 July, Sunday

    Time Temperature Precipitation Wind Pressure Humidity
    00:00 +18°C° 0 mm 1 mps 734 mmHg 83%
    01:00 +15°C° 0 mm 0 mps 733 mmHg 84%
    02:00 +15°C° 0 mm 0 mps 733 mmHg 85%
    03:00 +15°C° 0 mm 0 mps 733 mmHg 86%
    04:00 +15°C° 0 mm 0 mps 733 mmHg 87%
    05:00 +16°C° 0 mm 0 mps 733 mmHg 82%
    06:00 +18°C° 0 mm 0 mps 733 mmHg 77%
    07:00 +20°C° 0 mm 0 mps 733 mmHg 72%
    08:00 +24°C° 0 mm 1 mps 733 mmHg 67%
    09:00 +25°C° 0 mm 1 mps 733 mmHg 62%
    10:00 +27°C° 0 mm 1 mps 733 mmHg 57%
    11:00 +27°C° 0 mm 1 mps 733 mmHg 55%
    12:00 +28°C° 0 mm 2 mps 733 mmHg 53%
    13:00 +28°C° 0 mm 2 mps 733 mmHg 50%
    14:00 +28°C° 0 mm 2 mps 733 mmHg 52%
    15:00 +28°C° 0 mm 2 mps 733 mmHg 53%
    16:00 +28°C° 0 mm 2 mps 732 mmHg 55%
    17:00 +26°C° 0 mm 2 mps 732 mmHg 61%
    18:00 +24°C° 0 mm 1 mps 732 mmHg 67%
    19:00 +23°C° 0 mm 1 mps 732 mmHg 73%
    20:00 +22°C° 0 mm 1 mps 732 mmHg 76%
    21:00 +21°C° 0 mm 1 mps 732 mmHg 78%
    22:00 +19°C° 0 mm 1 mps 732 mmHg 81%
    23:00 +17°C° 0 mm 0 mps 732 mmHg 82%

    Day after tomorrow, 23 July, Monday

    Time Temperature Precipitation Wind Pressure Humidity
    00:00 +17°C° 0 mm 0 mps 732 mmHg 83%
    01:00 +16°C° 0 mm 0 mps 732 mmHg 85%
    02:00 +16°C° 0 mm 0 mps 732 mmHg 86%
    03:00 +15°C° 0 mm 0 mps 732 mmHg 87%
    04:00 +15°C° 0 mm 0 mps 732 mmHg 88%
    05:00 +19°C° 0 mm 1 mps 732 mmHg 83%
    06:00 +21°C° 0 mm 1 mps 732 mmHg 79%
    07:00 +22°C° 0 mm 1 mps 732 mmHg 74%
    08:00 +24°C° 0 mm 2 mps 732 mmHg 69%
    09:00 +25°C° 0 mm 2 mps 733 mmHg 64%
    10:00 +26°C° 0 mm 3 mps 733 mmHg 59%
    11:00 +27°C° 0 mm 3 mps 732 mmHg 57%
    12:00 +27°C° 0 mm 3 mps 732 mmHg 56%
    13:00 +28°C° 0 mm 3 mps 732 mmHg 54%
    14:00 +28°C° 0.1 mm 3 mps 732 mmHg 57%
    15:00 +27°C° 0.1 mm 3 mps 732 mmHg 59%
    16:00 +27°C° 0.1 mm 4 mps 732 mmHg 62%
    17:00 +25°C° 0.3 mm 3 mps 732 mmHg 69%
    18:00 +24°C° 0.3 mm 3 mps 732 mmHg 76%
    19:00 +21°C° 0.3 mm 2 mps 732 mmHg 82%
    20:00 +20°C° 0 mm 2 mps 733 mmHg 84%
    21:00 +19°C° 0 mm 2 mps 733 mmHg 87%
    22:00 +18°C° 0 mm 2 mps 733 mmHg 89%
    23:00 +18°C° 0 mm 2 mps 733 mmHg 90%

    24 July, Tuesday

    Time Temperature Precipitation Wind Pressure Humidity
    00:00 +17°C° 0 mm 2 mps 733 mmHg 91%
    01:00 +16°C° 0 mm 1 mps 733 mmHg 92%
    02:00 +16°C° 0 mm 1 mps 733 mmHg 92%
    03:00 +16°C° 0 mm 1 mps 733 mmHg 93%
    04:00 +15°C° 0 mm 1 mps 733 mmHg 93%
    05:00 +17°C° 0 mm 2 mps 733 mmHg 90%
    06:00 +18°C° 0 mm 2 mps 733 mmHg 86%
    07:00 +20°C° 0 mm 3 mps 734 mmHg 83%
    08:00 +21°C° 0.1 mm 3 mps 734 mmHg 77%
    09:00 +24°C° 0.1 mm 3 mps 734 mmHg 70%
    10:00 +25°C° 0.1 mm 3 mps 734 mmHg 64%
    11:00 +25°C° 0.5 mm 3 mps 733 mmHg 64%
    12:00 +26°C° 0.5 mm 3 mps 733 mmHg 65%
    13:00 +26°C° 0.5 mm 3 mps 733 mmHg 65%
    14:00 +26°C° 0.5 mm 3 mps 733 mmHg 66%
    15:00 +26°C° 0.5 mm 3 mps 733 mmHg 67%
    16:00 +26°C° 0.5 mm 3 mps 733 mmHg 68%
    17:00 +24°C° 0.2 mm 2 mps 733 mmHg 72%
    18:00 +23°C° 0.2 mm 2 mps 733 mmHg 76%
    19:00 +22°C° 0.2 mm 1 mps 733 mmHg 81%
    20:00 +21°C° 0 mm 1 mps 733 mmHg 83%
    21:00 +20°C° 0 mm 1 mps 733 mmHg 84%
    22:00 +19°C° 0 mm 1 mps 733 mmHg 86%
    23:00 +19°C° 0 mm 1 mps 733 mmHg 87%

    25 July, Wednesday

    Time Temperature Precipitation Wind Pressure Humidity
    00:00 +18°C° 0 mm 1 mps 733 mmHg 89%
    01:00 +18°C° 0 mm 1 mps 733 mmHg 90%
    02:00 +16°C° 0 mm 1 mps 733 mmHg 91%
    03:00 +16°C° 0 mm 1 mps 733 mmHg 92%
    04:00 +16°C° 0 mm 1 mps 733 mmHg 93%
    05:00 +17°C° 0 mm 2 mps 733 mmHg 90%
    06:00 +18°C° 0 mm 2 mps 734 mmHg 87%
    07:00 +20°C° 0 mm 2 mps 734 mmHg 83%
    08:00 +21°C° 0 mm 3 mps 734 mmHg 78%
    09:00 +22°C° 0 mm 3 mps 734 mmHg 73%
    10:00 +25°C° 0 mm 3 mps 734 mmHg 67%
    11:00 +25°C° 0.2 mm 3 mps 734 mmHg 66%
    12:00 +26°C° 0.2 mm 3 mps 733 mmHg 64%
    13:00 +27°C° 0.2 mm 4 mps 733 mmHg 62%
    14:00 +27°C° 0.1 mm 4 mps 733 mmHg 63%
    15:00 +27°C° 0.1 mm 4 mps 733 mmHg 64%
    16:00 +27°C° 0.1 mm 3 mps 733 mmHg 65%
    17:00 +25°C° 0.2 mm 3 mps 733 mmHg 71%
    18:00 +24°C° 0.2 mm 2 mps 733 mmHg 77%
    19:00 +23°C° 0.2 mm 2 mps 733 mmHg 83%
    20:00 +21°C° 0.5 mm 2 mps 733 mmHg 86%
    21:00 +20°C° 0.5 mm 2 mps 733 mmHg 89%
    22:00 +19°C° 0.5 mm 2 mps 734 mmHg 92%
    23:00 +19°C° 0.1 mm 2 mps 734 mmHg 93%

    26 July, Thursday

    Time Temperature Precipitation Wind Pressure Humidity
    00:00 +19°C° 0.1 mm 2 mps 733 mmHg 94%
    01:00 +18°C° 0.1 mm 2 mps 733 mmHg 95%
    02:00 +18°C° 0 mm 2 mps 734 mmHg 96%
    03:00 +18°C° 0 mm 2 mps 734 mmHg 96%
    04:00 +17°C° 0 mm 2 mps 734 mmHg 97%
    05:00 +19°C° 0.1 mm 2 mps 734 mmHg 94%
    06:00 +20°C° 0.1 mm 2 mps 734 mmHg 92%
    07:00 +21°C° 0.1 mm 2 mps 734 mmHg 89%
    08:00 +23°C° 0.2 mm 2 mps 734 mmHg 84%
    09:00 +24°C° 0.2 mm 2 mps 734 mmHg 80%
    10:00 +25°C° 0.2 mm 3 mps 734 mmHg 75%
    11:00 +26°C° 0.6 mm 3 mps 734 mmHg 72%
    12:00 +27°C° 0.6 mm 3 mps 734 mmHg 68%
    13:00 +28°C° 0.6 mm 3 mps 734 mmHg 65%
    14:00 +28°C° 0.5 mm 3 mps 734 mmHg 65%
    15:00 +28°C° 0.5 mm 3 mps 734 mmHg 65%
    16:00 +28°C° 0.5 mm 3 mps 734 mmHg 65%
    17:00 +26°C° 0.2 mm 2 mps 734 mmHg 70%
    18:00 +25°C° 0.2 mm 2 mps 734 mmHg 75%
    19:00 +24°C° 0.2 mm 1 mps 734 mmHg 80%
    20:00 +23°C° 0.1 mm 1 mps 734 mmHg 83%
    21:00 +22°C° 0.1 mm 1 mps 735 mmHg 85%
    22:00 +21°C° 0.1 mm 1 mps 735 mmHg 87%
    23:00 +20°C° 0 mm 1 mps 735 mmHg 88%
    Show more